Showing default

DX 1, 40071

Orbit data source: Space-Track

DX 1, 40071 is a payload satellite owned by Dauria (CIS) in SSO that was launched on Tue, 08 Jul 2014 UTC via a SOYUZ-2-1B launch vehicle from the Tyuratam Missile And Space Complex (TTMTR). Payload-class satellites include a variety of spacecraft equipped with specific instruments for various scientific and technological missions. These include communications satellites like Starlink; space stations such as the ISS; scientific satellites like the Hubble; Earth observation satellites from companies like Planet Labs, Umbra, and HawkEye 360; GPS; miniature CubeSats for education and research; and military/defense satellites.

Loading next visibility...
Identifier
40071, 2014-037C
Orbit
SSO
Last TLE update
4 hours ago
Origin
Manufacturer
Dauria
Mission
Operational Commercial Technology
Bus & Motor
DX-1, Unknown motor
Mass
21 kg wet, 21 kg dry
Launch date (UTC)
2014-07-08 (11 years ago)
Launch vehicle
SOYUZ-2-1B
Launch site
Tyuratam Missile And Space Complex (TTMTR)
Object type
Payload
Rocket body
Debris
Shape & HBR
Box, 0.2 m
Radar Cross Section
0.060 m², Medium (>0.1 m² and < 1m²)

Expand to show TLE details & history

TLE from 4 hours ago
0 DX 1
1 40071U 14037C   25129.22510065  .00002627  00000-0  29245-3 0  9999
2 40071  98.3434  63.3921 0008367 137.2273 222.9595 14.88040371586074
Epoch: 2025-05-09T05:24Z
Definitive object data (Epoch: 2025-05-09T05:24:08.696Z)
Latitude
0.00005°
Longitude
115.07156°
Altitude
611.356 km
Speed
7.551 km/s
True Right ascension
04h 13m 34s
True Declination
0° 00' 00"
Sunlit
Object was in daylight at TLE epoch
Visualization TLE readout
Latitude
15.64998°
Longitude
-62.41294°
Altitude
601.201 km
Speed
7.563 km/s
Apparent Right ascension
14h 03m 42s
Apparent Declination
-41° 31' 35"
Sunlit
Object is in full shadow
Visualization observer readout
Local Sidereal Time
17:31:12
Azimuth
216.187° SW
Elevation
-4.065°
Doppler factor
1
Orbital elements
Apogee altitude
606.949 km
Perigee altitude
595.27 km
Semi-major axis
6,979.247 km
Eccentricity
0.0008367
Inclination
98.3434°
RAAN
63.3921°
Arg. of periapsis
137.2273°
True anomaly
222.89421°
Mean anomaly
222.9595°
Eccentric anomaly
222.92685°
Mean motion
3.72246 °/min
BSTAR
0.00029245
Orbital period
96.71 mins
Loading maneuver chart data...
Loading SW <> Apogee altitude chart data...
Loading historical data...
Loading historical data...
Loading historical data...
Loading historical data...
Loading historical data...
Loading historical data...
Loading historical data...

DX 1 Visibility forecast

Observer location: undefined°, undefined°

Span
Click to sort rows by Start time (UTC) header in descending order
Start Az.
Max El. time (UTC)
Max El. Az.
Max El.
End time (UTC)
End Az.
4 mins2025-05-09 18:28:53.814Z95.447° ESE2025-05-09 18:30:53.814Z62.85° ENE16.216°2025-05-09 18:32:53.814Z31.62° NE
6 mins2025-05-09 20:03:53.814Z203.394° SW2025-05-09 20:05:53.814Z250.496° W32.633°2025-05-09 20:09:53.814Z330.223° NNW
6 mins2025-05-10 07:48:53.814Z47.972° ENE2025-05-10 07:50:53.814Z86.157° E25.271°2025-05-10 07:54:53.814Z157.508° S
|